UAE2901 OMDB-EKCH

Flight info

Callsign UAE2901
Flight time N/A
Altitude 38000
Route DAVMO4F DAVMO M318 RADEB M317 ROTAL P574 SYZ P550 RIGOX/N0492F400 P550 DASIS UL746 ODERO DCT LUGEB DCT KARIL DCT KEKED DCT KELEL DCT BABEN L617 KOLOB/N0497F280 L617 ROE M743 TIDVU TIDVU3A
Aircraft A359/H-SDE2E3GHIJ3J4J5LM1ORWXY/LB1D1

Departure

Time 2026-04-30 12:23
Airport Dubai International Airport (OMDB)

Arrival

Time N/A
Airport Copenhagen Kastrup Airport (EKCH)
Time Latitude Longitude Altitude Speed Heading
2026-04-30 11:45 25.24925 55.36218 28 ft 0 kts 211°
2026-04-30 11:57 25.24929 55.36220 28 ft 0 kts 211°
2026-04-30 11:57 25.24925 55.36218 28 ft 0 kts 211°
2026-04-30 12:14 25.24928 55.36220 28 ft 4 kts 210°
2026-04-30 12:15 25.24951 55.36234 28 ft 4 kts 205°
2026-04-30 12:15 25.24976 55.36245 27 ft 4 kts 197°
2026-04-30 12:15 25.25003 55.36251 25 ft 4 kts 178°
2026-04-30 12:15 25.25024 55.36245 27 ft 3 kts 125°
2026-04-30 12:16 25.25017 55.36258 27 ft 4 kts 121°
2026-04-30 12:16 25.25006 55.36280 27 ft 0 kts 121°
2026-04-30 12:19 25.24995 55.36298 28 ft 7 kts 123°
2026-04-30 12:20 25.24963 55.36355 28 ft 7 kts 120°
2026-04-30 12:20 25.24931 55.36426 28 ft 13 kts 115°
2026-04-30 12:20 25.24892 55.36519 28 ft 0 kts 115°
2026-04-30 12:20 25.24890 55.36524 28 ft 2 kts 115°
2026-04-30 12:21 25.24793 55.38051 27 ft 0 kts 301°
2026-04-30 12:21 25.24794 55.38049 27 ft 1 kts 301°
2026-04-30 12:21 25.24795 55.38047 28 ft 0 kts 301°
2026-04-30 12:22 25.24803 55.38034 28 ft 8 kts 301°
2026-04-30 12:22 25.24974 55.37723 28 ft 89 kts 302°
2026-04-30 12:22 25.25427 55.36904 29 ft 160 kts 301°
2026-04-30 12:22 25.26058 55.35719 460 ft 189 kts 301°
2026-04-30 12:23 25.26730 55.34418 1243 ft 200 kts 301°
2026-04-30 12:23 25.27518 55.33034 1914 ft 218 kts 301°
2026-04-30 12:23 25.28323 55.31626 2531 ft 215 kts 302°
2026-04-30 12:23 25.29200 55.30308 3148 ft 213 kts 314°
2026-04-30 12:24 25.30523 55.29515 3593 ft 225 kts 346°
2026-04-30 12:24 25.32099 55.29435 4060 ft 232 kts 358°
2026-04-30 12:24 25.33725 55.29505 4570 ft 234 kts 358°
2026-04-30 12:24 25.35371 55.29573 5048 ft 237 kts 358°
2026-04-30 12:25 25.37016 55.29633 5509 ft 240 kts 357°
2026-04-30 12:25 25.38705 55.29683 5943 ft 244 kts 358°
2026-04-30 12:25 25.40401 55.29993 6347 ft 253 kts 14°
2026-04-30 12:25 25.42097 55.30709 6570 ft 269 kts 19°
2026-04-30 12:26 25.43847 55.31539 6767 ft 282 kts 20°
2026-04-30 12:26 25.45684 55.32411 7118 ft 289 kts 19°
2026-04-30 12:26 25.47554 55.33297 7567 ft 293 kts 19°
2026-04-30 12:26 25.49418 55.34172 8000 ft 297 kts 19°
2026-04-30 12:27 25.51343 55.35069 8462 ft 301 kts 19°
2026-04-30 12:27 25.53271 55.35967 8927 ft 305 kts 19°
2026-04-30 12:27 25.55249 55.36888 9407 ft 308 kts 19°
2026-04-30 12:27 25.57229 55.37835 9881 ft 313 kts 22°
2026-04-30 12:28 25.59122 55.39084 10235 ft 322 kts 31°
2026-04-30 12:28 25.61003 55.40539 10430 ft 335 kts 32°
2026-04-30 12:28 25.62927 55.42055 10622 ft 348 kts 32°
2026-04-30 12:28 25.64937 55.43635 10809 ft 360 kts 32°
2026-04-30 12:29 25.66979 55.45324 10980 ft 372 kts 38°
2026-04-30 12:29 25.68912 55.47264 11161 ft 383 kts 41°
2026-04-30 12:29 25.70874 55.49331 11334 ft 393 kts 41°
2026-04-30 12:29 25.72884 55.51453 11530 ft 401 kts 41°
2026-04-30 12:30 25.74922 55.53600 11822 ft 406 kts 41°
2026-04-30 12:30 25.76953 55.55737 12127 ft 409 kts 41°
2026-04-30 12:30 25.79028 55.57919 12505 ft 411 kts 41°
2026-04-30 12:30 25.81118 55.60117 12847 ft 414 kts 41°
2026-04-30 12:31 25.83219 55.62326 13172 ft 416 kts 41°
2026-04-30 12:31 25.85331 55.64499 13517 ft 418 kts 38°
2026-04-30 12:31 25.87639 55.66467 13839 ft 418 kts 32°
2026-04-30 12:31 25.90075 55.68277 14159 ft 419 kts 29°
2026-04-30 12:32 25.92521 55.69974 14476 ft 420 kts 28°
2026-04-30 12:32 25.95025 55.71674 14808 ft 421 kts 28°
2026-04-30 12:32 25.97538 55.73386 15145 ft 423 kts 28°
2026-04-30 12:32 26.00052 55.75118 15464 ft 425 kts 28°
2026-04-30 12:33 26.02534 55.76848 15782 ft 427 kts 28°
2026-04-30 12:33 26.05145 55.78444 16100 ft 425 kts 19°
2026-04-30 12:33 26.07936 55.79347 16411 ft 418 kts
2026-04-30 12:33 26.10831 55.79558 16744 ft 414 kts 355°
2026-04-30 12:34 26.13712 55.79485 17065 ft 413 kts 352°
2026-04-30 12:34 26.16487 55.78995 17483 ft 404 kts 339°
2026-04-30 12:34 26.19082 55.77854 17817 ft 397 kts 326°
2026-04-30 12:34 26.21308 55.76076 18047 ft 392 kts 312°
2026-04-30 12:35 26.23207 55.73880 18308 ft 392 kts 307°
2026-04-30 12:35 26.24944 55.71583 18571 ft 392 kts 305°
2026-04-30 12:35 26.26648 55.69181 18837 ft 393 kts 304°
2026-04-30 12:35 26.28332 55.66759 19107 ft 395 kts 304°
2026-04-30 12:36 26.30010 55.64351 19367 ft 396 kts 304°
2026-04-30 12:36 26.31714 55.61932 19649 ft 398 kts 304°
2026-04-30 12:36 26.33427 55.59525 19898 ft 399 kts 304°
2026-04-30 12:36 26.35175 55.57088 20228 ft 399 kts 304°
2026-04-30 12:37 26.36898 55.54697 20544 ft 399 kts 304°
2026-04-30 12:37 26.38649 55.52270 20772 ft 401 kts 304°
2026-04-30 12:37 26.40408 55.49844 21009 ft 404 kts 305°
2026-04-30 12:37 26.42188 55.47391 21224 ft 405 kts 304°
2026-04-30 12:38 26.43972 55.44931 21469 ft 407 kts 304°
2026-04-30 12:38 26.45736 55.42496 21704 ft 409 kts 304°
2026-04-30 12:38 26.47534 55.40011 21947 ft 410 kts 304°
2026-04-30 12:38 26.49318 55.37545 22182 ft 412 kts 304°
2026-04-30 12:39 26.51128 55.35042 22439 ft 413 kts 304°
2026-04-30 12:39 26.52943 55.32532 22658 ft 415 kts 304°
2026-04-30 12:39 26.54761 55.30020 22889 ft 416 kts 304°
2026-04-30 12:39 26.56582 55.27492 23139 ft 418 kts 304°
2026-04-30 12:40 26.58387 55.24980 23343 ft 419 kts 304°
2026-04-30 12:40 26.60230 55.22414 23528 ft 421 kts 304°
2026-04-30 12:40 26.62071 55.19852 23722 ft 422 kts 304°
2026-04-30 12:40 26.63893 55.17315 23914 ft 423 kts 304°
2026-04-30 12:41 26.65747 55.14734 24117 ft 424 kts 304°
2026-04-30 12:41 26.67596 55.12158 24287 ft 425 kts 304°
2026-04-30 12:41 26.69458 55.09563 24482 ft 427 kts 304°
2026-04-30 12:41 26.71298 55.06999 24669 ft 427 kts 303°
2026-04-30 12:42 26.73167 55.04392 24885 ft 428 kts 303°
2026-04-30 12:42 26.75018 55.01807 25058 ft 429 kts 303°
2026-04-30 12:42 26.76893 54.99187 25220 ft 431 kts 303°
2026-04-30 12:42 26.78781 54.96548 25380 ft 432 kts 303°
2026-04-30 12:43 26.80645 54.93940 25575 ft 433 kts 303°
2026-04-30 12:43 26.82536 54.91283 25757 ft 434 kts 303°
2026-04-30 12:43 26.84406 54.88650 25934 ft 435 kts 303°
2026-04-30 12:43 26.86297 54.85983 26108 ft 437 kts 302°
2026-04-30 12:44 26.88195 54.83305 26305 ft 438 kts 302°
2026-04-30 12:44 26.90069 54.80663 26562 ft 437 kts 302°
2026-04-30 12:44 26.91977 54.77973 26791 ft 437 kts 302°
2026-04-30 12:44 26.93875 54.75292 26938 ft 439 kts 302°
2026-04-30 12:45 26.95756 54.72635 27083 ft 441 kts 302°
2026-04-30 12:45 26.97665 54.69934 27250 ft 442 kts 302°
2026-04-30 12:45 26.99583 54.67224 27447 ft 442 kts 302°
2026-04-30 12:45 27.01497 54.64517 27606 ft 444 kts 302°
2026-04-30 12:46 27.03426 54.61786 27778 ft 445 kts 302°
2026-04-30 12:46 27.05329 54.59090 27947 ft 446 kts 302°
2026-04-30 12:46 27.07262 54.56351 28202 ft 445 kts 301°
2026-04-30 12:46 27.09168 54.53649 28405 ft 446 kts 301°
2026-04-30 12:47 27.11098 54.50909 28562 ft 448 kts 301°
2026-04-30 12:47 27.13028 54.48167 28720 ft 449 kts 301°
2026-04-30 12:47 27.14980 54.45392 28863 ft 451 kts 301°
2026-04-30 12:47 27.16933 54.42613 29046 ft 452 kts 301°
2026-04-30 12:48 27.18885 54.39837 29240 ft 453 kts 301°
2026-04-30 12:48 27.20819 54.37084 29417 ft 454 kts 301°
2026-04-30 12:48 27.22784 54.34284 29590 ft 455 kts 301°
2026-04-30 12:48 27.24751 54.31482 29764 ft 457 kts 300°
2026-04-30 12:49 27.26732 54.28655 29919 ft 458 kts 300°
2026-04-30 12:49 27.28685 54.25867 30071 ft 459 kts 300°
2026-04-30 12:49 27.30666 54.23038 30179 ft 461 kts 300°
2026-04-30 12:49 27.32660 54.20190 30308 ft 462 kts 300°
2026-04-30 12:50 27.34661 54.17330 30462 ft 463 kts 300°
2026-04-30 12:50 27.36627 54.14518 30588 ft 464 kts 300°
2026-04-30 12:50 27.38628 54.11652 30704 ft 465 kts 300°
2026-04-30 12:50 27.40639 54.08771 30861 ft 466 kts 300°
2026-04-30 12:51 27.42625 54.05924 30969 ft 468 kts 300°
2026-04-30 12:51 27.44653 54.03014 31111 ft 469 kts 300°
2026-04-30 12:51 27.46670 54.00119 31217 ft 470 kts 300°
2026-04-30 12:51 27.48670 53.97247 31351 ft 470 kts 300°
2026-04-30 12:52 27.50693 53.94339 31517 ft 470 kts 300°
2026-04-30 12:52 27.52806 53.91484 31660 ft 476 kts 304°
2026-04-30 12:52 27.55224 53.88916 31845 ft 485 kts 312°
2026-04-30 12:52 27.58026 53.86687 31968 ft 496 kts 319°
2026-04-30 12:53 27.60996 53.84679 32179 ft 497 kts 321°
2026-04-30 12:53 27.63970 53.82771 32360 ft 497 kts 321°
2026-04-30 12:53 27.67006 53.80867 32474 ft 499 kts 322°
2026-04-30 12:53 27.70049 53.78969 32611 ft 499 kts 322°
2026-04-30 12:54 27.73081 53.77073 32795 ft 498 kts 322°
2026-04-30 12:54 27.76080 53.75188 32959 ft 498 kts 321°
2026-04-30 12:54 27.79111 53.73273 33195 ft 497 kts 321°
2026-04-30 12:54 27.82138 53.71352 33379 ft 497 kts 321°
2026-04-30 12:55 27.85159 53.69429 33565 ft 497 kts 321°
2026-04-30 12:55 27.88142 53.67527 33741 ft 496 kts 321°
2026-04-30 12:55 27.91162 53.65601 33916 ft 496 kts 321°
2026-04-30 12:55 27.94148 53.63695 34095 ft 496 kts 321°
2026-04-30 12:56 27.97152 53.61776 34282 ft 495 kts 321°
2026-04-30 12:56 28.00158 53.59857 34482 ft 494 kts 321°
2026-04-30 12:56 28.03163 53.57940 34709 ft 493 kts 321°
2026-04-30 12:56 28.06126 53.56047 34891 ft 492 kts 321°
2026-04-30 12:57 28.09121 53.54131 35064 ft 492 kts 321°
2026-04-30 12:57 28.12065 53.52246 35264 ft 491 kts 321°
2026-04-30 12:57 28.15044 53.50337 35473 ft 490 kts 321°
2026-04-30 12:57 28.17016 53.49073 35601 ft 490 kts 321°
2026-04-30 12:58 28.20964 53.46540 35878 ft 489 kts 321°
2026-04-30 12:58 28.23932 53.44636 36073 ft 488 kts 321°
2026-04-30 12:58 28.25901 53.43371 36195 ft 488 kts 321°
2026-04-30 12:58 28.28860 53.41470 36382 ft 487 kts 321°
2026-04-30 12:59 28.31780 53.39592 36584 ft 487 kts 321°
2026-04-30 12:59 28.34723 53.37698 36765 ft 486 kts 321°
2026-04-30 12:59 28.37680 53.35794 36961 ft 486 kts 321°
2026-04-30 12:59 28.40626 53.33897 37134 ft 485 kts 321°
2026-04-30 13:00 28.43534 53.32023 37290 ft 485 kts 321°
2026-04-30 13:00 28.46474 53.30126 37429 ft 485 kts 321°
2026-04-30 13:00 28.49416 53.28227 37645 ft 484 kts 321°
2026-04-30 13:00 28.52352 53.26331 37824 ft 483 kts 321°
2026-04-30 13:01 28.55240 53.24466 37935 ft 480 kts 321°
2026-04-30 13:01 28.58119 53.22595 37992 ft 468 kts 320°
2026-04-30 13:01 28.63668 53.18944 37963 ft 459 kts 320°
2026-04-30 13:02 28.69218 53.15263 37978 ft 460 kts 320°
2026-04-30 13:02 28.74736 53.11611 37996 ft 460 kts 320°
2026-04-30 13:03 28.80271 53.07956 37998 ft 460 kts 320°
2026-04-30 13:03 28.85811 53.04298 38020 ft 461 kts 320°
2026-04-30 13:04 28.91372 53.00621 38005 ft 461 kts 320°
2026-04-30 13:04 28.96886 52.96970 38060 ft 461 kts 320°
2026-04-30 13:05 29.02457 52.93278 38038 ft 461 kts 319°
2026-04-30 13:06 29.10770 52.87761 38045 ft 461 kts 319°
2026-04-30 13:06 29.16307 52.84079 38083 ft 461 kts 319°
2026-04-30 13:07 29.21877 52.80371 38051 ft 461 kts 319°
2026-04-30 13:07 29.27391 52.76696 38053 ft 461 kts 319°
2026-04-30 13:08 29.32949 52.72987 38058 ft 460 kts 319°
2026-04-30 13:08 29.38454 52.69311 38056 ft 459 kts 319°
2026-04-30 13:09 29.43993 52.65605 38062 ft 459 kts 319°
2026-04-30 13:09 29.49499 52.61916 38064 ft 459 kts 319°
2026-04-30 13:10 29.54665 52.57783 38079 ft 439 kts 305°
2026-04-30 13:10 29.58790 52.52744 38065 ft 433 kts 301°
2026-04-30 13:11 29.62757 52.47524 38073 ft 433 kts 301°
2026-04-30 13:11 29.66683 52.42307 38066 ft 434 kts 301°
2026-04-30 13:12 29.70667 52.37044 38092 ft 435 kts 301°
2026-04-30 13:12 29.74626 52.31832 38066 ft 433 kts 301°
2026-04-30 13:13 29.80567 52.24004 38065 ft 434 kts 301°
2026-04-30 13:14 29.86677 52.16231 38075 ft 446 kts 308°
2026-04-30 13:14 29.94526 52.10037 38061 ft 460 kts 317°
2026-04-30 13:15 30.02696 52.04213 38069 ft 460 kts 317°
2026-04-30 13:16 30.08122 52.00317 38051 ft 463 kts 317°
2026-04-30 13:16 30.13591 51.96358 38051 ft 464 kts 317°
2026-04-30 13:17 30.21785 51.90413 38048 ft 463 kts 317°
2026-04-30 13:18 30.29981 51.84455 38035 ft 463 kts 316°
2026-04-30 13:18 30.38158 51.78499 38036 ft 463 kts 316°
2026-04-30 13:19 30.43587 51.74538 38029 ft 462 kts 316°
2026-04-30 13:19 30.49037 51.70557 38023 ft 462 kts 316°
2026-04-30 13:20 30.54466 51.66584 38021 ft 462 kts 316°
2026-04-30 13:20 30.59892 51.62610 38035 ft 462 kts 316°
2026-04-30 13:21 30.65349 51.58603 38016 ft 463 kts 316°
2026-04-30 13:22 30.73440 51.52608 38127 ft 459 kts 315°
2026-04-30 13:22 30.81422 51.46420 38108 ft 458 kts 314°
2026-04-30 13:23 30.89401 51.40246 38061 ft 459 kts 314°
2026-04-30 13:24 31.00053 51.32021 37996 ft 460 kts 314°
2026-04-30 13:25 31.10709 51.23778 37993 ft 459 kts 314°
2026-04-30 13:26 31.24024 51.13435 37987 ft 462 kts 315°
2026-04-30 13:28 31.37367 51.03045 37983 ft 460 kts 314°
2026-04-30 13:28 31.45339 50.96817 37987 ft 459 kts 314°
2026-04-30 13:29 31.55942 50.88513 37995 ft 458 kts 314°
2026-04-30 13:31 31.69177 50.78114 37983 ft 459 kts 314°
2026-04-30 13:32 31.82403 50.67684 37998 ft 459 kts 314°
2026-04-30 13:33 31.93004 50.59303 38010 ft 457 kts 314°
2026-04-30 13:34 32.00915 50.53032 38025 ft 457 kts 314°
2026-04-30 13:35 32.11443 50.44663 38059 ft 456 kts 314°
2026-04-30 13:36 32.21944 50.36298 38060 ft 456 kts 315°
2026-04-30 13:36 32.29823 50.30000 38076 ft 455 kts 315°
2026-04-30 13:37 32.37695 50.23694 38074 ft 455 kts 315°
2026-04-30 13:38 32.45534 50.17408 38086 ft 455 kts 315°
2026-04-30 13:39 32.56059 50.08939 38090 ft 458 kts 315°
2026-04-30 13:40 32.63953 50.02573 38104 ft 457 kts 315°
2026-04-30 13:40 32.69219 49.98313 38110 ft 457 kts 315°
2026-04-30 13:41 32.74460 49.94076 38134 ft 456 kts 315°
2026-04-30 13:41 32.79707 49.89831 38107 ft 455 kts 315°
2026-04-30 13:42 32.84934 49.85589 38106 ft 455 kts 315°
2026-04-30 13:42 32.92762 49.79220 38109 ft 455 kts 316°
2026-04-30 13:43 32.97988 49.74965 38100 ft 455 kts 316°
2026-04-30 13:43 33.03230 49.70699 38103 ft 455 kts 316°
2026-04-30 13:44 33.08428 49.66450 38098 ft 454 kts 316°
2026-04-30 13:44 33.13631 49.62189 38106 ft 456 kts 316°
2026-04-30 13:45 33.20581 49.56495 38101 ft 454 kts 316°
2026-04-30 13:46 33.25796 49.52182 38111 ft 453 kts 316°
2026-04-30 13:46 33.30946 49.47883 38101 ft 452 kts 315°
2026-04-30 13:47 33.36110 49.43568 38127 ft 453 kts 315°
2026-04-30 13:47 33.41288 49.39242 38112 ft 453 kts 316°
2026-04-30 13:48 33.46428 49.34950 38128 ft 452 kts 315°
2026-04-30 13:48 33.51567 49.30652 38111 ft 451 kts 316°
2026-04-30 13:49 33.56733 49.26322 38109 ft 451 kts 315°
2026-04-30 13:49 33.61866 49.22007 38109 ft 452 kts 315°
2026-04-30 13:50 33.67006 49.17684 38123 ft 452 kts 316°
2026-04-30 13:50 33.74718 49.11190 38099 ft 451 kts 315°
2026-04-30 13:51 33.79848 49.06860 38087 ft 452 kts 316°
2026-04-30 13:51 33.85002 49.02503 38086 ft 451 kts 316°
2026-04-30 13:52 33.90123 48.98169 38086 ft 451 kts 316°
2026-04-30 13:52 33.95232 48.93839 38088 ft 451 kts 316°
2026-04-30 13:53 34.00367 48.89478 38091 ft 451 kts 316°
2026-04-30 13:53 34.05508 48.85106 38073 ft 451 kts 316°
2026-04-30 13:54 34.10611 48.80760 38081 ft 451 kts 316°
2026-04-30 13:54 34.15731 48.76394 38075 ft 450 kts 316°
2026-04-30 13:55 34.20842 48.72029 38075 ft 450 kts 316°
2026-04-30 13:55 34.25950 48.67658 38092 ft 450 kts 316°
2026-04-30 13:56 34.31050 48.63287 38075 ft 451 kts 316°
2026-04-30 13:56 34.36183 48.58883 38074 ft 450 kts 316°
2026-04-30 13:57 34.41276 48.54506 38084 ft 450 kts 316°
2026-04-30 13:57 34.46392 48.50103 38074 ft 450 kts 316°
2026-04-30 13:58 34.54022 48.43523 38085 ft 450 kts 316°
2026-04-30 13:59 34.59131 48.39108 38081 ft 450 kts 317°
2026-04-30 13:59 34.64254 48.34675 38079 ft 450 kts 317°
2026-04-30 14:00 34.69335 48.30272 38092 ft 450 kts 317°
2026-04-30 14:00 34.76997 48.23615 38075 ft 451 kts 317°
2026-04-30 14:01 34.82115 48.19164 38075 ft 450 kts 317°
2026-04-30 14:01 34.87190 48.14743 38067 ft 450 kts 317°
2026-04-30 14:02 34.92302 48.10280 38070 ft 451 kts 317°
2026-04-30 14:02 34.97385 48.05839 38064 ft 451 kts 317°
2026-04-30 14:03 35.02475 48.01384 38064 ft 450 kts 317°
2026-04-30 14:03 35.07544 47.96941 38060 ft 450 kts 317°
2026-04-30 14:04 35.12674 47.92483 38060 ft 451 kts 319°
2026-04-30 14:04 35.17962 47.88385 38053 ft 454 kts 321°
2026-04-30 14:05 35.23360 47.84329 38048 ft 454 kts 321°
2026-04-30 14:05 35.28698 47.80245 38042 ft 453 kts 321°
2026-04-30 14:06 35.36679 47.74046 38048 ft 453 kts 321°
2026-04-30 14:07 35.44642 47.67831 38036 ft 452 kts 321°
2026-04-30 14:08 35.52591 47.61619 38044 ft 452 kts 321°
2026-04-30 14:08 35.60547 47.55388 38050 ft 451 kts 321°
2026-04-30 14:09 35.65856 47.51222 38052 ft 451 kts 321°
2026-04-30 14:10 35.73768 47.44999 38058 ft 450 kts 321°
2026-04-30 14:10 35.79036 47.40849 38056 ft 450 kts 321°
2026-04-30 14:11 35.84292 47.36701 38070 ft 450 kts 321°
2026-04-30 14:11 35.89582 47.32520 38070 ft 450 kts 321°
2026-04-30 14:12 35.94839 47.28357 38094 ft 450 kts 322°
2026-04-30 14:12 36.00111 47.24176 38077 ft 449 kts 322°
2026-04-30 14:13 36.05356 47.20010 38077 ft 449 kts 322°
2026-04-30 14:13 36.10593 47.15844 38083 ft 449 kts 322°
2026-04-30 14:14 36.15850 47.11655 38086 ft 449 kts 322°
2026-04-30 14:14 36.21090 47.07473 38083 ft 449 kts 322°
2026-04-30 14:15 36.26344 47.03279 38091 ft 448 kts 322°
2026-04-30 14:15 36.31559 46.99114 38091 ft 448 kts 322°
2026-04-30 14:16 36.36819 46.94904 38085 ft 448 kts 322°
2026-04-30 14:16 36.42052 46.90708 38086 ft 448 kts 322°
2026-04-30 14:17 36.47278 46.86511 38088 ft 449 kts 322°
2026-04-30 14:17 36.52514 46.82301 38081 ft 448 kts 322°
2026-04-30 14:18 36.57761 46.78074 38092 ft 448 kts 322°
2026-04-30 14:18 36.65611 46.71737 38069 ft 448 kts 322°
2026-04-30 14:19 36.73410 46.65426 38072 ft 447 kts 322°
2026-04-30 14:20 36.78631 46.61192 38068 ft 447 kts 322°
2026-04-30 14:20 36.86449 46.54840 38070 ft 447 kts 322°
2026-04-30 14:21 36.91651 46.50604 38066 ft 447 kts 322°
2026-04-30 14:22 36.99450 46.44240 38053 ft 446 kts 322°
2026-04-30 14:22 37.07247 46.37862 38053 ft 446 kts 322°
2026-04-30 14:23 37.17630 46.29345 38052 ft 445 kts 322°
2026-04-30 14:24 37.25388 46.22962 38041 ft 445 kts 322°
2026-04-30 14:25 37.35708 46.14446 38048 ft 444 kts 322°
2026-04-30 14:26 37.43447 46.08042 38047 ft 444 kts 322°
2026-04-30 14:27 37.51160 46.01643 38045 ft 443 kts 322°
2026-04-30 14:27 37.56318 45.97355 38041 ft 442 kts 322°
2026-04-30 14:28 37.64245 45.91347 38035 ft 447 kts 331°
2026-04-30 14:28 37.69932 45.88183 38033 ft 448 kts 332°
2026-04-30 14:29 37.80453 45.82594 38023 ft 448 kts 333°
2026-04-30 14:31 37.94843 45.74880 38026 ft 449 kts 332°
2026-04-30 14:31 38.03471 45.70229 38029 ft 450 kts 332°
2026-04-30 14:32 38.12090 45.65572 38031 ft 450 kts 332°
2026-04-30 14:33 38.17846 45.62456 38032 ft 451 kts 332°
2026-04-30 14:33 38.26527 45.57746 38025 ft 452 kts 332°
2026-04-30 14:34 38.32292 45.54612 38019 ft 452 kts 332°
2026-04-30 14:34 38.37994 45.51234 38023 ft 448 kts 324°
2026-04-30 14:35 38.42737 45.46317 38021 ft 439 kts 308°
2026-04-30 14:35 38.44581 45.43211 38017 ft 435 kts 299°
2026-04-30 14:36 38.47428 45.36412 38010 ft 435 kts 294°
2026-04-30 14:36 38.50062 45.29478 38015 ft 435 kts 293°
2026-04-30 14:37 38.52678 45.22505 38006 ft 436 kts 293°
2026-04-30 14:37 38.55317 45.15536 38016 ft 437 kts 294°
2026-04-30 14:38 38.57992 45.08503 38024 ft 438 kts 294°
2026-04-30 14:38 38.60645 45.01527 38037 ft 438 kts 293°
2026-04-30 14:39 38.63317 44.94480 38043 ft 439 kts 293°
2026-04-30 14:39 38.65968 44.87469 38050 ft 440 kts 293°
2026-04-30 14:40 38.69955 44.76894 38071 ft 441 kts 293°
2026-04-30 14:40 38.72614 44.69820 38086 ft 441 kts 293°
2026-04-30 14:41 38.75261 44.62762 38083 ft 442 kts 293°
2026-04-30 14:41 38.77922 44.55650 38093 ft 443 kts 293°
2026-04-30 14:42 38.80599 44.48478 38093 ft 446 kts 293°
2026-04-30 14:42 38.83269 44.41308 38093 ft 447 kts 293°
2026-04-30 14:43 38.85944 44.34110 38098 ft 448 kts 293°
2026-04-30 14:43 38.88610 44.26916 38100 ft 449 kts 293°